Mt. Clemens, MI

7:45 AM EDT on April 27, 2017 (GMT -0400)
Selfridge Angb

Weather History for KMTC - April, 2013

Change the Weather History Date:

Saturday, April 20, 2013

  Actual Average Record
Temperature  
Mean Temperature 35 °F -  
Max Temperature 40 °F 59 °F 84 °F (1985)
Min Temperature 28 °F 39 °F 26 °F (1956)
Degree Days  
Heating Degree Days 30    
Moisture  
Dew Point 26 °F    
Average Humidity 70    
Maximum Humidity 93    
Minimum Humidity 46    
Precipitation  
Precipitation 0.00 in - - ()
Sea Level Pressure  
Sea Level Pressure 29.99 in    
Wind  
Wind Speed 15 mph (West)    
Max Wind Speed 24 mph    
Max Gust Speed 30 mph    
Visibility 10 miles    
Events Rain , Snow    
Averages and records for this station are not official NWS values.
T = Trace of Precipitation, MM = Missing Value Source: NWS Daily Summary

Daily Weather History Graph

Daily Weather History Graph

Search for Another Location

Airport or City:

Trip Planner

Search our weather history database for the weather conditions in past years. The results will help you decide how hot, cold, wet, or windy it might be!

Date:

Astronomy

Apr. 20, 2013 Rise Set
Actual Time 6:41 AM EDT 8:19 PM EDT
Civil Twilight 6:12 AM EDT 8:49 PM EDT
Nautical Twilight 5:36 AM EDT 9:25 PM EDT
Astronomical Twilight 4:57 AM EDT 10:04 PM EDT
Moon 2:55 PM EDT (4/20) 3:37 AM EDT (4/20)
Length of Visible Light 14h 37m
Length of Day
13h 37m
Waxing Gibbous, 71% of the Moon is Illuminated
Apr 20
Waxing Gibbous
Apr 25
Full
May 2
Last Quarter
May 9
New
May 18
First Quarter

Hourly Weather History & Observations

Time (EDT) Temp. Windchill Dew Point Humidity Pressure Visibility Wind Dir Wind Speed Gust Speed Precip Events Conditions
12:12 AM 39.2 °F 30.5 °F 28.4 °F 65% 29.75 in 10.0 mi WSW 16.1 mph 23.0 mph N/A Rain Light Rain
12:22 AM 39.2 °F 28.7 °F 30.2 °F 70% 29.76 in 10.0 mi WSW 23.0 mph 27.6 mph N/A Rain Light Rain
12:26 AM 37.4 °F 26.9 °F 30.2 °F 75% 29.76 in 10.0 mi WSW 20.7 mph 27.6 mph N/A Rain Light Rain
12:27 AM 37.4 °F 27.8 °F 30.2 °F 75% 29.77 in 10.0 mi WSW 17.3 mph 27.6 mph N/A Rain Light Rain
12:28 AM 37.4 °F 28.2 °F 32.0 °F 81% 29.77 in 10.0 mi WSW 16.1 mph 27.6 mph N/A Rain Light Rain
12:31 AM 37.4 °F 29.3 °F 32.0 °F 81% 29.77 in 10.0 mi WSW 12.7 mph 27.6 mph N/A Rain Light Rain
12:33 AM 37.4 °F 29.3 °F 32.0 °F 81% 29.77 in 10.0 mi WSW 12.7 mph - N/A   Overcast
12:36 AM 35.6 °F 26.6 °F 32.0 °F 87% 29.76 in 10.0 mi WSW 13.8 mph 19.6 mph N/A   Overcast
12:55 AM 36.3 °F 26.8 °F 31.8 °F 84% 29.78 in 9.0 mi West 16.1 mph 24.2 mph 0.00 in   Overcast
12:56 AM 35.6 °F 24.5 °F 32.0 °F 87% 29.78 in 8.0 mi West 20.7 mph 29.9 mph N/A   Overcast
12:57 AM 35.6 °F 24.5 °F 32.0 °F 87% 29.78 in 7.0 mi West 20.7 mph 29.9 mph N/A   Overcast
1:00 AM 35.6 °F 23.7 °F 32.0 °F 87% 29.78 in 5.0 mi WSW 24.2 mph 29.9 mph N/A Snow Light Snow
1:03 AM 33.8 °F 22.5 °F 32.0 °F 93% 29.78 in 4.0 mi WSW 19.6 mph 29.9 mph N/A Snow Light Snow
1:04 AM 33.8 °F 22.8 °F 32.0 °F 93% 29.78 in 4.0 mi WSW 18.4 mph 29.9 mph N/A Snow Light Snow
1:21 AM 33.8 °F 25.3 °F 30.2 °F 87% 29.78 in 10.0 mi WSW 11.5 mph - N/A   Overcast
1:23 AM 33.8 °F 23.9 °F 30.2 °F 87% 29.78 in 10.0 mi WSW 15.0 mph - N/A Snow Light Snow
1:24 AM 33.8 °F 23.9 °F 30.2 °F 87% 29.78 in 10.0 mi WSW 15.0 mph - N/A Snow Light Snow
1:39 AM 33.8 °F 25.3 °F 30.2 °F 87% 29.79 in 9.0 mi WSW 11.5 mph - N/A Snow Light Snow
1:46 AM 33.8 °F 24.8 °F 30.2 °F 87% 29.79 in 7.0 mi WSW 12.7 mph - N/A Snow Light Snow
1:55 AM 33.8 °F 25.8 °F 30.4 °F 87% 29.79 in 10.0 mi WSW 10.4 mph - 0.00 in   Overcast
2:01 AM 33.8 °F 25.8 °F 30.2 °F 87% 29.80 in 10.0 mi WSW 10.4 mph - N/A Snow Light Snow
2:29 AM 33.8 °F 27.0 °F 30.2 °F 87% 29.80 in 10.0 mi WSW 8.1 mph - N/A   Overcast
2:55 AM 34.7 °F 25.9 °F 29.3 °F 81% 29.81 in 10.0 mi WSW 12.7 mph - 0.00 in   Overcast
3:55 AM 34.7 °F 25.5 °F 28.0 °F 77% 29.83 in 10.0 mi WSW 13.8 mph - N/A   Overcast
4:55 AM 34.9 °F 24.2 °F 21.9 °F 59% 29.86 in 10.0 mi West 18.4 mph 28.8 mph N/A   Mostly Cloudy
5:55 AM 33.1 °F 23.9 °F 19.9 °F 59% 29.89 in 10.0 mi West 12.7 mph 24.2 mph N/A   Scattered Clouds
6:55 AM 32.5 °F 22.3 °F 18.0 °F 55% 29.95 in 10.0 mi WNW 15.0 mph 20.7 mph N/A   Overcast
7:55 AM 31.6 °F 21.2 °F 16.5 °F 54% 29.99 in 12.0 mi WNW 15.0 mph 23.0 mph N/A   Mostly Cloudy
8:55 AM 31.8 °F 20.6 °F 17.1 °F 55% 30.04 in 12.0 mi West 17.3 mph - N/A   Mostly Cloudy
9:55 AM 33.1 °F 22.2 °F 16.7 °F 51% 30.08 in 12.0 mi WNW 17.3 mph 24.2 mph N/A   Partly Cloudy
10:55 AM 34.7 °F 25.1 °F 16.9 °F 48% 30.12 in 12.0 mi WNW 15.0 mph 23.0 mph N/A   Scattered Clouds
11:55 AM 36.7 °F 28.4 °F 18.3 °F 47% 30.16 in 12.0 mi WNW 12.7 mph 23.0 mph N/A   Scattered Clouds
12:55 PM 37.9 °F 29.6 °F 19.2 °F 47% 30.18 in 12.0 mi West 13.8 mph 20.7 mph N/A   Mostly Cloudy
1:55 PM 38.7 °F 30.9 °F 20.1 °F 47% 30.20 in 12.0 mi WNW 12.7 mph 19.6 mph N/A   Mostly Cloudy
2:55 PM 39.2 °F 31.2 °F 20.7 °F 47% 30.23 in 12.0 mi WNW 13.8 mph - N/A   Mostly Cloudy
3:55 PM 38.8 °F 32.6 °F 19.9 °F 47% 30.26 in 12.0 mi WNW 9.2 mph 21.9 mph N/A   Mostly Cloudy
4:55 PM 39.7 °F 31.9 °F 20.5 °F 46% 30.28 in 12.0 mi WNW 13.8 mph - N/A   Mostly Cloudy
5:55 PM 38.5 °F 30.3 °F 21.0 °F 50% 30.31 in 12.0 mi WNW 13.8 mph - N/A   Mostly Cloudy
6:51 PM 37.4 °F 28.5 °F 21.2 °F 52% 30.29 in 12.0 mi NW 15.0 mph - N/A Snow Light Snow
6:55 PM 37.8 °F 30.7 °F 22.3 °F 54% 30.34 in 10.0 mi NW 10.4 mph - 0.00 in   Overcast
7:02 PM 37.4 °F 30.3 °F 21.2 °F 52% 30.34 in 10.0 mi NW 10.4 mph - N/A   Mostly Cloudy
7:55 PM 36.7 °F 29.4 °F 21.4 °F 54% 30.36 in 10.0 mi WNW 10.4 mph - 0.00 in   Mostly Cloudy
8:55 PM 34.5 °F 29.4 °F 23.7 °F 65% 30.40 in 10.0 mi NW 5.8 mph - N/A   Mostly Cloudy
9:55 PM 33.1 °F 28.7 °F 22.5 °F 65% 30.43 in 10.0 mi NW 4.6 mph - N/A   Clear
10:55 PM 33.1 °F - 21.9 °F 64% 30.45 in 10.0 mi Calm Calm - N/A   Clear
11:55 PM 28.4 °F - 23.9 °F 83% 30.47 in 10.0 mi Calm Calm - N/A   Clear